Starlink 32923

operational
NORAD ID: 63097 Int'l Des: 2025-037 Owner: SPXS Country: US Constellation: starlink
LEOCIRCULAR

关于 Starlink 32923

正在加载描述...

实时位置

正在加载3D地球...

即将过境

高度历史

Altitude vs Time

uPlot chart will show altitude changes over time

两行轨道根数

1 63097U 25037W 25304.42978808 .00003823 00000-0 32791-3 0 9993
2 63097 70.0007 320.2283 0003267 272.2791 87.7994 14.98339603 39247
Epoch: Oct 31, 2025 • Age: 31 hours

当前状态

高度 574.8 km
速度 7.57 km/s
星下点 20.27°N, 30.68°E
发射日期 Feb 23, 2025
运行时间 0.6 years
类型 internet

技术详情

分类 Payload
质量 730.00 kg
干质量 700.00 kg
总质量 730.00 kg
长度 0.30 m
直径 4.10 m
跨度 29.00 m
形状 Box + pan
制造商 SPXS
平台类型 Starlink V2M
阶段状态 In Orbit
所有者/国家 SPXS/US

大型星座

Loading constellations...